FW9486 Weather Reports


Display with metric or nautical units.
time (UTC)temp
F
wind
direction
speed
MPH
gust
MPH
rain 1hr
in
rain 24hr
in
rain mn
in
humidity
%
barometer
mb
20260831014550 66 311 1.0 3.0 0.00 0.00 0.00 26 1013.7
20260831013103 67 288 1.0 8.0 0.00 0.00 0.00 25 1013.6
20260831011546 68 314 1.0 6.0 0.00 0.00 0.00 25 1013.8
20260831010044 69 274 1.0 7.0 0.00 0.00 0.00 24 1013.8
20260831004548 70 261 4.0 8.0 0.00 0.00 0.00 23 1013.9
20260831003103 71 297 3.0 7.0 0.00 0.00 0.00 23 1013.9
20260831001549 71 267 3.0 7.0 0.00 0.00 0.00 23 1013.8
20260831000049 71 295 2.0 6.0 0.00 0.00 0.00 22 1013.9
20260830234548 71 96 1.0 10.0 0.00 0.00 0.00 22 1014.0
20260830233053 71 295 2.0 8.0 0.00 0.00 0.00 22 1014.1
20260830231549 70 43 2.0 9.0 0.00 0.00 0.00 23 1014.1
20260830230048 70 275 3.0 8.0 0.00 0.00 0.00 21 1014.2
20260830224549 70 254 5.0 11.0 0.00 0.00 0.00 22 1014.3
20260830223104 71 126 3.0 13.0 0.00 0.00 0.00 20 1014.5
20260830221556 70 269 4.0 11.0 0.00 0.00 0.00 21 1014.5
20260830220051 71 333 4.0 9.0 0.00 0.00 0.00 21 1014.6
20260830214544 71 298 3.0 10.0 0.00 0.00 0.00 20 1014.6
20260830213042 71 268 4.0 9.0 0.00 0.00 0.00 18 1014.9
20260830211547 70 262 4.0 9.0 0.00 0.00 0.00 22 1014.9
20260830210048 70 229 6.0 11.0 0.00 0.00 0.00 21 1014.9
20260830204552 70 198 5.0 10.0 0.00 0.00 0.00 21 1014.9
20260830203051 71 293 3.0 11.0 0.00 0.00 0.00 20 1015.0
20260830201553 70 171 2.0 8.0 0.00 0.00 0.00 19 1015.1
20260830200049 69 252 4.0 10.0 0.00 0.00 0.00 18 1015.2
20260830194546 68 172 5.0 10.0 0.00 0.00 0.00 22 1015.2
20260830193051 67 255 5.0 12.0 0.00 0.00 0.00 24 1015.2
20260830191551 68 293 3.0 10.0 0.00 0.00 0.00 26 1015.3
20260830190055 67 236 4.0 10.0 0.00 0.00 0.00 26 1015.6
20260830184604 65 193 3.0 6.0 0.00 0.00 0.00 31 1015.7
20260830183059 64 84 2.0 6.0 0.00 0.00 0.00 32 1015.7
20260830181550 63 91 3.0 6.0 0.00 0.00 0.00 34 1015.8
20260830180049 63 113 3.0 7.0 0.00 0.00 0.00 33 1016.0
20260830174556 61 162 3.0 9.0 0.00 0.00 0.00 38 1016.0
20260830173051 62 99 2.0 5.0 0.00 0.00 0.00 36 1016.0
20260830171550 59 128 2.0 6.0 0.00 0.00 0.00 40 1016.1
20260830170050 58 141 1.0 4.0 0.00 0.00 0.00 43 1016.2
20260830164541 58 171 1.0 4.0 0.00 0.00 0.00 43 1016.3
20260830163050 57 0 1.0 4.0 0.00 0.00 0.00 45 1016.3
20260830161551 54 133 2.0 6.0 0.00 0.00 0.00 51 1016.4
20260830160044 53 0 2.0 5.0 0.00 0.00 0.00 52 1016.4
20260830154543 52 145 1.0 3.0 0.00 0.00 0.00 55 1016.4
20260830153043 52 119 1.0 2.0 0.00 0.00 0.00 56 1016.4
20260830151551 50 0 0.0 1.0 0.00 0.00 0.00 57 1016.3
20260830150048 48 0 0.0 2.0 0.00 0.00 0.00 61 1016.2
20260830144546 46 0 0.0 1.0 0.00 0.00 0.00 63 1016.2
20260830143058 44 0 0.0 1.0 0.00 0.00 0.00 67 1016.1
20260830141545 45 0 0.0 1.0 0.00 0.00 0.00 64 1015.9
20260830140045 43 15 0.0 1.0 0.00 0.00 0.00 68 1015.8
20260830134553 41 0 0.0 1.0 0.00 0.00 0.00 73 1015.6
20260830133049 39 0 0.0 0.0 0.00 0.00 0.00 75 1015.5
20260830131548 39 0 0.0 0.0 0.00 0.00 0.00 74 1015.3
20260830130046 40 0 0.0 1.0 0.00 0.00 0.00 69 1015.3
20260830124550 41 0 0.0 1.0 0.00 0.00 0.00 68 1015.0
20260830123052 41 0 0.0 0.0 0.00 0.00 0.00 70 1014.8
20260830121546 42 0 0.0 0.0 0.00 0.00 0.00 68 1014.7
20260830120055 42 0 0.0 0.0 0.00 0.00 0.00 67 1014.7
20260830114548 42 0 0.0 0.0 0.00 0.00 0.00 67 1014.6
20260830113040 42 0 0.0 0.0 0.00 0.00 0.00 64 1014.4
20260830111551 42 15 0.0 1.0 0.00 0.00 0.00 65 1014.2
20260830110052 43 0 0.0 1.0 0.00 0.00 0.00 62 1014.2
20260830104602 46 0 0.0 2.0 0.00 0.00 0.00 59 1014.0
20260830103051 46 0 0.0 0.0 0.00 0.00 0.00 61 1013.9
20260830101548 46 0 0.0 1.0 0.00 0.00 0.00 62 1014.0
20260830100048 46 0 0.0 0.0 0.00 0.00 0.00 62 1013.8
20260830094551 46 0 0.0 1.0 0.00 0.00 0.00 62 1013.7
20260830093047 47 0 0.0 0.0 0.00 0.00 0.00 60 1013.8
20260830091544 46 0 0.0 0.0 0.00 0.00 0.00 60 1013.6
20260830090050 48 0 0.0 1.0 0.00 0.00 0.00 58 1013.5
20260830084549 49 0 0.0 0.0 0.00 0.00 0.00 56 1013.3
20260830083054 50 0 0.0 1.0 0.00 0.00 0.00 55 1013.3
20260830081550 51 0 0.0 1.0 0.00 0.00 0.00 53 1013.0
20260830080049 52 0 0.0 4.0 0.00 0.00 0.00 50 1013.0
20260830074546 53 0 0.0 10.0 0.00 0.00 0.00 49 1012.9
20260830073100 53 0 0.0 4.0 0.00 0.00 0.00 49 1012.9
20260830071547 53 343 1.0 7.0 0.00 0.00 0.00 49 1012.9
20260830070048 53 0 0.0 2.0 0.00 0.00 0.00 49 1013.1
20260830064542 54 43 0.0 5.0 0.00 0.00 0.00 48 1013.0
20260830063108 54 0 0.0 6.0 0.00 0.00 0.00 47 1012.9
20260830061550 54 79 1.0 3.0 0.00 0.00 0.00 48 1012.8
20260830060053 55 0 0.0 2.0 0.00 0.00 0.00 47 1012.8
20260830054546 55 6 1.0 3.0 0.00 0.00 0.00 46 1012.5
20260830053045 56 314 1.0 5.0 0.00 0.00 0.00 45 1012.6
20260830051549 56 1 0.0 3.0 0.00 0.00 0.00 45 1012.5
20260830050054 57 56 1.0 9.0 0.00 0.00 0.00 44 1012.5
20260830044546 58 353 1.0 11.0 0.00 0.00 0.00 43 1012.5
20260830043049 58 32 2.0 10.0 0.00 0.00 0.00 43 1012.4
20260830041602 59 40 2.0 11.0 0.00 0.00 0.00 42 1012.2
20260830040049 59 342 2.0 10.0 0.00 0.00 0.00 41 1012.0
20260830034601 60 278 2.0 14.0 0.00 0.00 0.00 40 1011.6
20260830033050 61 23 3.0 9.0 0.00 0.00 0.00 39 1011.5
20260830031550 61 321 4.0 14.0 0.00 0.00 0.00 39 1011.2
20260830030050 62 307 5.0 11.0 0.00 0.00 0.00 38 1010.7
20260830024551 62 154 3.0 15.0 0.00 0.00 0.00 38 1010.2
20260830023044 63 115 3.0 15.0 0.00 0.00 0.00 38 1010.1
20260830021602 64 309 4.0 15.0 0.00 0.00 0.00 38 1009.8
20260830020046 66 63 5.0 12.0 0.00 0.00 0.00 37 1009.5